Aérodrome :
LOGIN :

S'inscrire | Disclaimer

   EN    FR    IT 

 










Légende :    VFR   VFR Marginal   IFR   IFR Intensif   IFR Très Intensif
Visi : 
Plafond : 
>= 8 km
>= 3000ft
5 à 8 km
1000 à 3000 ft
1500m à 5 km
500 à 1000 ft
800 à 1500m
200 à 500 ft
< 800m
< 200 ft
Symboles :   Orages  Brouillard  Fortes neiges  Fortes précipitations  Vent > 20 kt
SIGMETs :   Divers  Orages  Givrage  Turbulence  Onde Orograph.  Cendres Volcan.







- Altitude de l'aérodrome : 39 ft
- Code IATA : ANR


EBAW - Anvers / Antwerpen Deurne

DERNIER METAR :
  • 240920Z 31006KT 270V340 9999 FEW022 20/14 Q1025 NOSIG

METARs EXPIRÉS :
  • 240850Z 29007KT 260V330 9999 FEW020 20/14 Q1025 NOSIG
  • 240820Z 27007KT 240V320 9999 FEW016 20/14 Q1025 NOSIG
  • 240750Z 28007KT CAVOK 19/14 Q1025 NOSIG
  • 240720Z 27007KT 240V300 CAVOK 18/14 Q1025 NOSIG
  • 240650Z 27006KT CAVOK 17/13 Q1024 NOSIG

TAF TAF EBAW
Valide du 24 à 09h jusqu'au 24 à 18h UTC


240810Z 2409/2418 32008KT 9999 FEW020
Pas de NOTAMs connus pour ce terrain.



MET'MAP, la Météo Aéronautique d'un coup d'oeil ! - Copyright ORBIFLY Décembre 2007 - Disclaimer

ORBIFLY MET'MAP TEAM :

Programmation & Développement : Alexandra Zaïnal
Conception & Développement : Baudouin d'Aumeries
Co-Programmation & Développement : Marc-Olivier Méhu
Soutien technique & logistique : Manuel Goepfert

Contact : metmap@orbifly.com




SOURCES & CREDITS :

   NOAA